"read_dt","SO2 (ppb)","flags","PMT voltage (V)","lamp voltage (V)","lamp intensity (Hz)","internal temp (C)","react chamber temp (C)","sample flow (l/min)","pres (mmHg)","SO2 bkg (ppb)","SO2 coefficient"
2015-10-29 00:00:00,1763E-3,5C000400,-0724,0828,12050,020.4,045.2,0.269,753.6,01.17,0.508
2015-10-29 00:01:00,2008E-3,5C000400,-0724,0828,12334,020.4,045.2,0.269,753.6,01.17,0.508
2015-10-29 00:02:00,1938E-3,5C000400,-0724,0829,12184,020.4,045.2,0.269,753.6,01.17,0.508
2015-10-29 00:03:00,1764E-3,5C000400,-0724,0828,12161,020.4,045.2,0.269,753.6,01.17,0.508
2015-10-29 00:04:00,1823E-3,5C000400,-0724,0829,12237,020.4,045.3,0.269,753.6,01.17,0.508
2015-10-29 00:05:00,1792E-3,5C000400,-0724,0828,12239,020.4,045.2,0.269,753.7,01.17,0.508
2015-10-29 00:06:00,1862E-3,5C000400,-0724,0828,12274,020.4,045.2,0.269,753.6,01.17,0.508
2015-10-29 00:07:00,1808E-3,5C000400,-0724,0828,12220,020.4,045.2,0.269,753.7,01.17,0.508
2015-10-29 00:08:00,1857E-3,5C000400,-0724,0829,12252,020.4,045.2,0.268,753.6,01.17,0.508
2015-10-29 00:09:00,1791E-3,5C000400,-0724,0828,12156,020.4,045.3,0.269,753.6,01.17,0.508
2015-10-29 00:10:00,1816E-3,5C000400,-0724,0829,12239,020.4,045.3,0.269,753.6,01.17,0.508
2015-10-29 00:11:00,1783E-3,5C000400,-0724,0829,12298,020.4,045.2,0.269,753.6,01.17,0.508
2015-10-29 00:12:00,1783E-3,5C000400,-0724,0828,12211,020.4,045.2,0.269,753.6,01.17,0.508
2015-10-29 00:13:00,1895E-3,5C000400,-0724,0829,12289,020.4,045.2,0.269,753.7,01.17,0.508
2015-10-29 00:14:00,1836E-3,5C000400,-0724,0828,12297,020.4,045.2,0.269,753.7,01.17,0.508
2015-10-29 00:15:00,1730E-3,5C000400,-0724,0829,12280,020.4,045.2,0.269,753.7,01.17,0.508
2015-10-29 00:16:00,1769E-3,5C000400,-0724,0828,12188,020.4,045.2,0.269,753.7,01.17,0.508
2015-10-29 00:17:00,1770E-3,5C000400,-0724,0828,12181,020.4,045.2,0.269,753.7,01.17,0.508
2015-10-29 00:18:00,1879E-3,5C000400,-0724,0828,12192,020.4,045.2,0.269,753.6,01.17,0.508
2015-10-29 00:19:00,1734E-3,5C000400,-0724,0829,12252,020.4,045.2,0.268,753.6,01.17,0.508
2015-10-29 00:20:00,1785E-3,5C000400,-0724,0829,12235,020.4,045.2,0.269,753.7,01.17,0.508
2015-10-29 00:21:00,1928E-3,5C000400,-0724,0828,12307,020.4,045.2,0.268,753.6,01.17,0.508
2015-10-29 00:22:00,1786E-3,5C000400,-0724,0828,12240,020.4,045.2,0.269,753.6,01.17,0.508
2015-10-29 00:23:00,1816E-3,5C000400,-0724,0828,12236,020.4,045.2,0.269,753.7,01.17,0.508
2015-10-29 00:24:00,1919E-3,5C000400,-0724,0828,12185,020.4,045.2,0.269,753.7,01.17,0.508
2015-10-29 00:25:00,1775E-3,5C000400,-0724,0828,12221,020.4,045.2,0.269,753.7,01.17,0.508
2015-10-29 00:26:00,1616E-3,5C000400,-0724,0829,12272,020.4,045.2,0.269,753.7,01.17,0.508
2015-10-29 00:27:00,1830E-3,5C000400,-0724,0828,12224,020.4,045.2,0.269,753.7,01.17,0.508
2015-10-29 00:28:00,1794E-3,5C000400,-0724,0829,12203,020.4,045.3,0.269,753.7,01.17,0.508
2015-10-29 00:29:00,1861E-3,5C000400,-0724,0828,12275,020.5,045.2,0.269,753.7,01.17,0.508
2015-10-29 00:30:00,1828E-3,5C000400,-0724,0828,12179,020.4,045.2,0.269,753.7,01.17,0.508
2015-10-29 00:31:00,1693E-3,5C000400,-0724,0828,12136,020.4,045.2,0.269,753.7,01.17,0.508
2015-10-29 00:32:00,1878E-3,5C000400,-0724,0829,12297,020.4,045.2,0.269,753.7,01.17,0.508
2015-10-29 00:33:00,1809E-3,5C000400,-0724,0828,12323,020.4,045.2,0.269,753.6,01.17,0.508
2015-10-29 00:34:00,1755E-3,5C000400,-0724,0828,12224,020.4,045.2,0.269,753.7,01.17,0.508
2015-10-29 00:35:00,1849E-3,5C000400,-0724,0828,12271,020.4,045.3,0.269,753.8,01.17,0.508
2015-10-29 00:36:00,1866E-3,5C000400,-0724,0828,12218,020.4,045.2,0.269,753.7,01.17,0.508
2015-10-29 00:37:00,1721E-3,5C000400,-0724,0828,12060,020.4,045.2,0.269,753.7,01.17,0.508
2015-10-29 00:38:00,1903E-3,5C000400,-0724,0828,12186,020.4,045.2,0.269,753.7,01.17,0.508
2015-10-29 00:39:00,1872E-3,5C000400,-0724,0828,12076,020.4,045.2,0.269,753.7,01.17,0.508
2015-10-29 00:40:00,1787E-3,5C000400,-0724,0829,12292,020.4,045.2,0.269,753.6,01.17,0.508
2015-10-29 00:41:00,1789E-3,5C000400,-0724,0829,12190,020.4,045.3,0.269,753.6,01.17,0.508
2015-10-29 00:42:00,1897E-3,5C000400,-0724,0828,12300,020.4,045.3,0.268,753.6,01.17,0.508
2015-10-29 00:43:00,1769E-3,5C000400,-0724,0828,12059,020.4,045.3,0.269,753.5,01.17,0.508
2015-10-29 00:44:00,1931E-3,5C000400,-0724,0828,12255,020.4,045.3,0.268,753.5,01.17,0.508
2015-10-29 00:45:00,1867E-3,5C000400,-0724,0828,12245,020.4,045.3,0.269,753.5,01.17,0.508
2015-10-29 00:46:00,1851E-3,5C000400,-0724,0828,12024,020.4,045.2,0.268,753.5,01.17,0.508
2015-10-29 00:47:00,1796E-3,5C000400,-0724,0828,12252,020.4,045.2,0.269,753.6,01.17,0.508
2015-10-29 00:48:00,1857E-3,5C000400,-0724,0829,12428,020.4,045.3,0.268,753.6,01.17,0.508
2015-10-29 00:49:00,1897E-3,5C000400,-0724,0828,12108,020.4,045.3,0.269,753.5,01.17,0.508
2015-10-29 00:50:00,1942E-3,5C000400,-0724,0828,12202,020.4,045.3,0.269,753.6,01.17,0.508
2015-10-29 00:51:00,1827E-3,5C000400,-0724,0828,12174,020.4,045.3,0.269,753.6,01.17,0.508
2015-10-29 00:52:00,1791E-3,5C000400,-0724,0828,12160,020.4,045.2,0.269,753.5,01.17,0.508
2015-10-29 00:53:00,1883E-3,5C000400,-0724,0828,12195,020.4,045.3,0.269,753.5,01.17,0.508
2015-10-29 00:54:00,1868E-3,5C000400,-0724,0828,12218,020.4,045.2,0.269,753.5,01.17,0.508
2015-10-29 00:55:00,1712E-3,5C000400,-0724,0828,12081,020.4,045.2,0.269,753.6,01.17,0.508
2015-10-29 00:56:00,1860E-3,5C000400,-0724,0828,12206,020.4,045.2,0.269,753.5,01.17,0.508
2015-10-29 00:57:00,1805E-3,5C000400,-0724,0828,12225,020.4,045.2,0.269,753.4,01.17,0.508
2015-10-29 00:58:00,1806E-3,5C000400,-0724,0829,12220,020.4,045.3,0.269,753.5,01.17,0.508
2015-10-29 00:59:00,1909E-3,5C000400,-0724,0828,12196,020.4,045.2,0.269,753.3,01.17,0.508
2015-10-29 01:00:00,1839E-3,5C000400,-0724,0828,12293,020.4,045.2,0.269,753.5,01.17,0.508
2015-10-29 01:01:00,1700E-3,5C000400,-0724,0829,12317,020.4,045.3,0.269,753.6,01.17,0.508
2015-10-29 01:02:00,1800E-3,5C000400,-0724,0828,12127,020.4,045.2,0.268,753.5,01.17,0.508
2015-10-29 01:03:00,1814E-3,5C000400,-0724,0828,12256,020.4,045.3,0.269,753.4,01.17,0.508
2015-10-29 01:04:00,1852E-3,5C000400,-0724,0829,12259,020.4,045.3,0.268,753.4,01.17,0.508
2015-10-29 01:05:00,1834E-3,5C000400,-0724,0827,12328,020.4,045.2,0.269,753.5,01.17,0.508
2015-10-29 01:06:00,1837E-3,5C000400,-0724,0829,12197,020.4,045.2,0.269,753.5,01.17,0.508
2015-10-29 01:07:00,1785E-3,5C000400,-0724,0828,12205,020.4,045.3,0.269,753.4,01.17,0.508
2015-10-29 01:08:00,1862E-3,5C000400,-0724,0828,12183,020.4,045.2,0.269,753.3,01.17,0.508
2015-10-29 01:09:00,1801E-3,5C000400,-0724,0828,12150,020.4,045.2,0.268,753.4,01.17,0.508
2015-10-29 01:10:00,1856E-3,5C000400,-0724,0828,12155,020.4,045.2,0.269,753.4,01.17,0.508
2015-10-29 01:11:00,2016E-3,5C000400,-0724,0828,12221,020.4,045.2,0.269,753.5,01.17,0.508
2015-10-29 01:12:00,1816E-3,5C000400,-0724,0828,12147,020.4,045.2,0.268,753.5,01.17,0.508
2015-10-29 01:13:00,2007E-3,5C000400,-0724,0828,12343,020.4,045.2,0.269,753.5,01.17,0.508
2015-10-29 01:14:00,1659E-3,5C000400,-0724,0828,12295,020.4,045.2,0.269,753.5,01.17,0.508
2015-10-29 01:15:00,1853E-3,5C000400,-0724,0828,12147,020.4,045.3,0.269,753.4,01.17,0.508
2015-10-29 01:16:00,1766E-3,5C000400,-0724,0829,12235,020.4,045.2,0.269,753.4,01.17,0.508
2015-10-29 01:17:00,1739E-3,5C000400,-0724,0828,12282,020.4,045.2,0.269,753.5,01.17,0.508
2015-10-29 01:18:00,1959E-3,5C000400,-0724,0829,12177,020.4,045.2,0.269,753.5,01.17,0.508
2015-10-29 01:19:00,1802E-3,5C000400,-0724,0828,12235,020.4,045.3,0.269,753.4,01.17,0.508
2015-10-29 01:20:00,1872E-3,5C000400,-0724,0828,12286,020.4,045.2,0.268,753.5,01.17,0.508
2015-10-29 01:21:00,1798E-3,5C000400,-0724,0828,12204,020.4,045.2,0.269,753.5,01.17,0.508
2015-10-29 01:22:00,1964E-3,5C000400,-0724,0828,12184,020.4,045.2,0.269,753.5,01.17,0.508
2015-10-29 01:23:00,1802E-3,5C000400,-0724,0828,12256,020.4,045.2,0.268,753.5,01.17,0.508
2015-10-29 01:24:00,1766E-3,5C000400,-0724,0828,12314,020.4,045.2,0.269,753.6,01.17,0.508
2015-10-29 01:25:00,1751E-3,5C000400,-0724,0828,12272,020.4,045.2,0.269,753.5,01.17,0.508
2015-10-29 01:26:00,1897E-3,5C000400,-0724,0828,12136,020.4,045.2,0.268,753.4,01.17,0.508
2015-10-29 01:27:00,1775E-3,5C000400,-0724,0828,12251,020.4,045.2,0.269,753.5,01.17,0.508
2015-10-29 01:28:00,1771E-3,5C000400,-0724,0828,12191,020.4,045.3,0.269,753.6,01.17,0.508
2015-10-29 01:29:00,1853E-3,5C000400,-0724,0828,12085,020.4,045.2,0.268,753.5,01.17,0.508
2015-10-29 01:30:00,1753E-3,5C000400,-0724,0828,12103,020.4,045.2,0.269,753.6,01.17,0.508
2015-10-29 01:31:00,1793E-3,5C000400,-0724,0828,12212,020.4,045.2,0.269,753.5,01.17,0.508
2015-10-29 01:32:00,1838E-3,5C000400,-0724,0828,12272,020.4,045.2,0.268,753.5,01.17,0.508
2015-10-29 01:33:00,1831E-3,5C000400,-0724,0828,12114,020.4,045.3,0.269,753.5,01.17,0.508
2015-10-29 01:34:00,1784E-3,5C000400,-0724,0828,12265,020.4,045.2,0.269,753.6,01.17,0.508
2015-10-29 01:35:00,1979E-3,5C000400,-0724,0828,12182,020.4,045.3,0.269,753.6,01.17,0.508
2015-10-29 01:36:00,1758E-3,5C000400,-0724,0828,12253,020.4,045.2,0.269,753.6,01.17,0.508
2015-10-29 01:37:00,1874E-3,5C000400,-0724,0828,12214,020.4,045.2,0.269,753.6,01.17,0.508
2015-10-29 01:38:00,1814E-3,5C000400,-0724,0828,12096,020.4,045.3,0.269,753.6,01.17,0.508
2015-10-29 01:39:00,1848E-3,5C000400,-0724,0827,12238,020.4,045.2,0.269,753.6,01.17,0.508
2015-10-29 01:40:00,1856E-3,5C000400,-0724,0828,12325,020.4,045.3,0.268,753.6,01.17,0.508
2015-10-29 01:41:00,1766E-3,5C000400,-0724,0828,12060,020.4,045.2,0.269,753.6,01.17,0.508
2015-10-29 01:42:00,1821E-3,5C000400,-0724,0828,12287,020.4,045.2,0.269,753.6,01.17,0.508
2015-10-29 01:43:00,1767E-3,5C000400,-0724,0828,12207,020.4,045.2,0.269,753.6,01.17,0.508
2015-10-29 01:44:00,1792E-3,5C000400,-0724,0829,12353,020.4,045.3,0.269,753.6,01.17,0.508
2015-10-29 01:45:00,1868E-3,5C000400,-0724,0828,12222,020.4,045.2,0.269,753.6,01.17,0.508
2015-10-29 01:46:00,1774E-3,5C000400,-0724,0827,12184,020.4,045.2,0.269,753.7,01.17,0.508
2015-10-29 01:47:00,1679E-3,5C000400,-0724,0828,12345,020.4,045.3,0.268,753.6,01.17,0.508
2015-10-29 01:48:00,1810E-3,5C000400,-0724,0829,12146,020.4,045.2,0.269,753.7,01.17,0.508
2015-10-29 01:49:00,1818E-3,5C000400,-0724,0828,12183,020.4,045.2,0.269,753.6,01.17,0.508
2015-10-29 01:50:00,1875E-3,5C000400,-0724,0828,12282,020.4,045.2,0.269,753.5,01.17,0.508
2015-10-29 01:51:00,1830E-3,5C000400,-0724,0828,12184,020.4,045.2,0.269,753.6,01.17,0.508
2015-10-29 01:52:00,1831E-3,5C000400,-0724,0828,12145,020.4,045.2,0.269,753.5,01.17,0.508
2015-10-29 01:53:00,1808E-3,5C000400,-0724,0828,12119,020.4,045.3,0.269,753.5,01.17,0.508
2015-10-29 01:54:00,1884E-3,5C000400,-0724,0828,12289,020.4,045.2,0.269,753.5,01.17,0.508
2015-10-29 01:55:00,1974E-3,5C000400,-0724,0829,12286,020.4,045.2,0.269,753.5,01.17,0.508
2015-10-29 01:56:00,1938E-3,5C000400,-0724,0828,12256,020.4,045.2,0.268,753.3,01.17,0.508
2015-10-29 01:57:00,1859E-3,5C000400,-0724,0828,12126,020.4,045.3,0.269,753.5,01.17,0.508
2015-10-29 01:58:00,1816E-3,5C000400,-0724,0828,12292,020.4,045.3,0.269,753.4,01.17,0.508
2015-10-29 01:59:00,1779E-3,5C000400,-0724,0829,12261,020.4,045.3,0.269,753.3,01.17,0.508
2015-10-29 02:00:00,1820E-3,5C000400,-0724,0828,12063,020.4,045.3,0.269,753.4,01.17,0.508
2015-10-29 02:01:00,1735E-3,5C000400,-0724,0828,12189,020.4,045.2,0.268,753.3,01.17,0.508
2015-10-29 02:02:00,1730E-3,5C000400,-0724,0828,12188,020.4,045.2,0.269,753.4,01.17,0.508
2015-10-29 02:03:00,1835E-3,5C000400,-0724,0828,12235,020.4,045.2,0.269,753.3,01.17,0.508
2015-10-29 02:04:00,1816E-3,5C000400,-0724,0828,12280,020.4,045.2,0.269,753.4,01.17,0.508
2015-10-29 02:05:00,1881E-3,5C000400,-0724,0828,12323,020.4,045.3,0.269,753.4,01.17,0.508
2015-10-29 02:06:00,1771E-3,5C000400,-0724,0828,12027,020.4,045.3,0.269,753.4,01.17,0.508
2015-10-29 02:07:00,1806E-3,5C000400,-0724,0829,12321,020.4,045.2,0.269,753.4,01.17,0.508
2015-10-29 02:08:00,1828E-3,5C000400,-0724,0829,12187,020.4,045.2,0.268,753.3,01.17,0.508
2015-10-29 02:09:00,1970E-3,5C000400,-0724,0828,12167,020.4,045.3,0.269,753.3,01.17,0.508
2015-10-29 02:10:00,1814E-3,5C000400,-0724,0828,12227,020.4,045.3,0.269,753.4,01.17,0.508
2015-10-29 02:11:00,1845E-3,5C000400,-0724,0828,12174,020.4,045.3,0.269,753.3,01.17,0.508
2015-10-29 02:12:00,1838E-3,5C000400,-0724,0828,12280,020.4,045.2,0.269,753.3,01.17,0.508
2015-10-29 02:13:00,1770E-3,5C000400,-0724,0827,12177,020.4,045.2,0.269,753.3,01.17,0.508
2015-10-29 02:14:00,1749E-3,5C000400,-0724,0828,12251,020.4,045.3,0.269,753.3,01.17,0.508
2015-10-29 02:15:00,1743E-3,5C000400,-0724,0828,12209,020.4,045.2,0.268,753.4,01.17,0.508
2015-10-29 02:16:00,1802E-3,5C000400,-0724,0827,12284,020.4,045.2,0.269,753.3,01.17,0.508
2015-10-29 02:17:00,1853E-3,5C000400,-0724,0828,12268,020.4,045.2,0.269,753.4,01.17,0.508
2015-10-29 02:18:00,1858E-3,5C000400,-0724,0828,12307,020.4,045.2,0.269,753.4,01.17,0.508
2015-10-29 02:19:00,1791E-3,5C000400,-0724,0828,12200,020.4,045.2,0.269,753.5,01.17,0.508
2015-10-29 02:20:00,1868E-3,5C000400,-0724,0828,12204,020.4,045.2,0.269,753.4,01.17,0.508
2015-10-29 02:21:00,1727E-3,5C000400,-0724,0828,12239,020.4,045.2,0.269,753.5,01.17,0.508
2015-10-29 02:22:00,1775E-3,5C000400,-0724,0828,12268,020.4,045.3,0.268,753.4,01.17,0.508
2015-10-29 02:23:00,1764E-3,5C000400,-0724,0828,12204,020.4,045.3,0.269,753.4,01.17,0.508
2015-10-29 02:24:00,1729E-3,5C000400,-0724,0828,12128,020.4,045.2,0.269,753.5,01.17,0.508
2015-10-29 02:25:00,1897E-3,5C000400,-0724,0828,12251,020.4,045.2,0.269,753.3,01.17,0.508
2015-10-29 02:26:00,1802E-3,5C000400,-0724,0828,12191,020.4,045.2,0.268,753.4,01.17,0.508
2015-10-29 02:27:00,1787E-3,5C000400,-0724,0828,12262,020.4,045.2,0.269,753.4,01.17,0.508
2015-10-29 02:28:00,1943E-3,5C000400,-0724,0828,12110,020.4,045.2,0.269,753.4,01.17,0.508
2015-10-29 02:29:00,1823E-3,5C000400,-0724,0829,12271,020.4,045.3,0.269,753.3,01.17,0.508
2015-10-29 02:30:00,1768E-3,5C000400,-0724,0828,12231,020.4,045.2,0.269,753.4,01.17,0.508
2015-10-29 02:31:00,1652E-3,5C000400,-0724,0828,12243,020.4,045.2,0.269,753.4,01.17,0.508
2015-10-29 02:32:00,1872E-3,5C000400,-0724,0828,12200,020.4,045.2,0.269,753.3,01.17,0.508
2015-10-29 02:33:00,1800E-3,5C000400,-0724,0828,12181,020.4,045.2,0.268,753.3,01.17,0.508
2015-10-29 02:34:00,1817E-3,5C000400,-0724,0828,12277,020.4,045.2,0.269,753.4,01.17,0.508
2015-10-29 02:35:00,1800E-3,5C000400,-0724,0828,12233,020.4,045.2,0.269,753.3,01.17,0.508
2015-10-29 02:36:00,1877E-3,5C000400,-0724,0828,12130,020.4,045.2,0.269,753.4,01.17,0.508
2015-10-29 02:37:00,1895E-3,5C000400,-0724,0828,12148,020.4,045.3,0.269,753.3,01.17,0.508
2015-10-29 02:38:00,1721E-3,5C000400,-0724,0829,12286,020.4,045.2,0.268,753.4,01.17,0.508
2015-10-29 02:39:00,1747E-3,5C000400,-0724,0829,12224,020.4,045.2,0.269,753.4,01.17,0.508
2015-10-29 02:40:00,1802E-3,5C000400,-0724,0828,12157,020.4,045.2,0.268,753.4,01.17,0.508
2015-10-29 02:41:00,1937E-3,5C000400,-0724,0828,12248,020.4,045.2,0.269,753.2,01.17,0.508
2015-10-29 02:42:00,1911E-3,5C000400,-0724,0828,12243,020.4,045.2,0.269,753.3,01.17,0.508
2015-10-29 02:43:00,1898E-3,5C000400,-0724,0828,12273,020.4,045.3,0.269,753.2,01.17,0.508
2015-10-29 02:44:00,1742E-3,5C000400,-0724,0829,12145,020.4,045.2,0.269,753.3,01.17,0.508
2015-10-29 02:45:00,1753E-3,5C000400,-0724,0828,12101,020.4,045.2,0.268,753.2,01.17,0.508
2015-10-29 02:46:00,1848E-3,5C000400,-0724,0828,12159,020.4,045.2,0.269,753.3,01.17,0.508
2015-10-29 02:47:00,1811E-3,5C000400,-0724,0828,12188,020.4,045.2,0.268,753.3,01.17,0.508
2015-10-29 02:48:00,1809E-3,5C000400,-0724,0829,12202,020.4,045.2,0.269,753.3,01.17,0.508
2015-10-29 02:49:00,1784E-3,5C000400,-0724,0828,12213,020.4,045.2,0.269,753.4,01.17,0.508
2015-10-29 02:50:00,1844E-3,5C000400,-0724,0829,12090,020.4,045.2,0.269,753.3,01.17,0.508
2015-10-29 02:51:00,1847E-3,5C000400,-0724,0828,12082,020.4,045.2,0.269,753.3,01.17,0.508
2015-10-29 02:52:00,1856E-3,5C000400,-0724,0828,12288,020.4,045.2,0.269,753.4,01.17,0.508
2015-10-29 02:53:00,1886E-3,5C000400,-0724,0828,12264,020.4,045.2,0.269,753.2,01.17,0.508
2015-10-29 02:54:00,1892E-3,5C000400,-0724,0828,12320,020.4,045.2,0.268,753.3,01.17,0.508
2015-10-29 02:55:00,1895E-3,5C000400,-0724,0828,12136,020.4,045.2,0.269,753.3,01.17,0.508
2015-10-29 02:56:00,1818E-3,5C000400,-0724,0828,12400,020.4,045.3,0.269,753.4,01.17,0.508
2015-10-29 02:57:00,1795E-3,5C000400,-0724,0828,12230,020.4,045.3,0.269,753.2,01.17,0.508
2015-10-29 02:58:00,1847E-3,5C000400,-0724,0828,12132,020.4,045.2,0.269,753.2,01.17,0.508
2015-10-29 02:59:00,1776E-3,5C000400,-0724,0828,12357,020.4,045.2,0.269,753.3,01.17,0.508
2015-10-29 03:00:00,1912E-3,5C000400,-0724,0828,12338,020.4,045.2,0.269,753.1,01.17,0.508
2015-10-29 03:01:00,1848E-3,5C000400,-0724,0828,12149,020.4,045.2,0.268,753.3,01.17,0.508
2015-10-29 03:02:00,1802E-3,5C000400,-0724,0828,12266,020.4,045.2,0.269,753.3,01.17,0.508
2015-10-29 03:03:00,1977E-3,5C000400,-0724,0829,12238,020.4,045.3,0.268,753.3,01.17,0.508
2015-10-29 03:04:00,1812E-3,5C000400,-0724,0828,12320,020.4,045.3,0.269,753.4,01.17,0.508
2015-10-29 03:05:00,1773E-3,5C000400,-0724,0828,12262,020.4,045.2,0.269,753.3,01.17,0.508
2015-10-29 03:06:00,1865E-3,5C000400,-0724,0828,12282,020.4,045.2,0.269,753.4,01.17,0.508
2015-10-29 03:07:00,1802E-3,5C000400,-0724,0828,12211,020.4,045.2,0.269,753.3,01.17,0.508
2015-10-29 03:08:00,1908E-3,5C000400,-0724,0828,12317,020.4,045.2,0.269,753.4,01.17,0.508
2015-10-29 03:09:00,1900E-3,5C000400,-0724,0828,12113,020.4,045.2,0.269,753.4,01.17,0.508
2015-10-29 03:10:00,1841E-3,5C000400,-0724,0829,12270,020.4,045.3,0.269,753.4,01.17,0.508
2015-10-29 03:11:00,1764E-3,5C000400,-0724,0828,12077,020.4,045.2,0.269,753.4,01.17,0.508
2015-10-29 03:12:00,1853E-3,5C000400,-0724,0828,12199,020.4,045.2,0.269,753.4,01.17,0.508
2015-10-29 03:13:00,1711E-3,5C000400,-0724,0828,12135,020.4,045.3,0.269,753.4,01.17,0.508
2015-10-29 03:14:00,1804E-3,5C000400,-0724,0829,12189,020.4,045.2,0.269,753.4,01.17,0.508
2015-10-29 03:15:00,1919E-3,5C000400,-0724,0828,12207,020.4,045.2,0.269,753.4,01.17,0.508
2015-10-29 03:16:00,1813E-3,5C000400,-0724,0829,12242,020.4,045.2,0.269,753.4,01.17,0.508
2015-10-29 03:17:00,1761E-3,5C000400,-0724,0828,12212,020.4,045.2,0.269,753.3,01.17,0.508
2015-10-29 03:18:00,1729E-3,5C000400,-0724,0829,12248,020.4,045.2,0.269,753.2,01.17,0.508
2015-10-29 03:19:00,1929E-3,5C000400,-0724,0828,12255,020.3,045.2,0.269,753.3,01.17,0.508
2015-10-29 03:20:00,1807E-3,5C000400,-0724,0828,12193,020.4,045.2,0.269,753.2,01.17,0.508
2015-10-29 03:21:00,2026E-3,5C000400,-0724,0829,12230,020.4,045.2,0.269,753.1,01.17,0.508
2015-10-29 03:22:00,1923E-3,5C000400,-0724,0828,12197,020.4,045.3,0.268,753.1,01.17,0.508
2015-10-29 03:23:00,1804E-3,5C000400,-0724,0829,12148,020.4,045.2,0.269,752.9,01.17,0.508
2015-10-29 03:24:00,1900E-3,5C000400,-0724,0828,12323,020.4,045.3,0.268,753.0,01.17,0.508
2015-10-29 03:25:00,1761E-3,5C000400,-0724,0828,12120,020.4,045.2,0.269,753.0,01.17,0.508
2015-10-29 03:26:00,1815E-3,5C000400,-0724,0829,12128,020.4,045.2,0.268,752.9,01.17,0.508
2015-10-29 03:27:00,1886E-3,5C000400,-0724,0828,12348,020.4,045.2,0.269,753.0,01.17,0.508
2015-10-29 03:28:00,2018E-3,5C000400,-0724,0829,12091,020.4,045.3,0.269,752.9,01.17,0.508
2015-10-29 03:29:00,1935E-3,5C000400,-0724,0829,12094,020.4,045.2,0.269,752.7,01.17,0.508
2015-10-29 03:30:00,1925E-3,5C000400,-0724,0829,12270,020.4,045.2,0.269,752.7,01.17,0.508
2015-10-29 03:31:00,1816E-3,5C000400,-0724,0829,12159,020.4,045.2,0.269,752.7,01.17,0.508
2015-10-29 03:32:00,2004E-3,5C000400,-0724,0829,12211,020.4,045.2,0.269,752.8,01.17,0.508
2015-10-29 03:33:00,1763E-3,5C000400,-0724,0829,12247,020.3,045.2,0.269,752.8,01.17,0.508
2015-10-29 03:34:00,1836E-3,5C000400,-0724,0829,12188,020.4,045.3,0.269,752.7,01.17,0.508
2015-10-29 03:35:00,1771E-3,5C000400,-0724,0829,12091,020.3,045.2,0.268,752.8,01.17,0.508
2015-10-29 03:36:00,1761E-3,5C000400,-0724,0829,12205,020.4,045.2,0.269,752.8,01.17,0.508
2015-10-29 03:37:00,1825E-3,5C000400,-0724,0828,12260,020.4,045.3,0.269,752.9,01.17,0.508
2015-10-29 03:38:00,1827E-3,5C000400,-0724,0828,12096,020.4,045.2,0.269,752.8,01.17,0.508
2015-10-29 03:39:00,1758E-3,5C000400,-0724,0829,12339,020.4,045.2,0.269,752.9,01.17,0.508
2015-10-29 03:40:00,1724E-3,5C000400,-0724,0828,12215,020.3,045.2,0.268,752.8,01.17,0.508
2015-10-29 03:41:00,1791E-3,5C000400,-0724,0828,12189,020.4,045.2,0.269,752.8,01.17,0.508
2015-10-29 03:42:00,1854E-3,5C000400,-0724,0829,12209,020.3,045.2,0.269,753.0,01.17,0.508
2015-10-29 03:43:00,1830E-3,5C000400,-0724,0828,12271,020.4,045.2,0.269,753.0,01.17,0.508
2015-10-29 03:44:00,1913E-3,5C000400,-0724,0828,12134,020.3,045.2,0.269,753.0,01.17,0.508
2015-10-29 03:45:00,1818E-3,5C000400,-0724,0828,12244,020.4,045.2,0.268,753.0,01.17,0.508
2015-10-29 03:46:00,1842E-3,5C000400,-0724,0828,12122,020.4,045.2,0.269,753.1,01.17,0.508
2015-10-29 03:47:00,1930E-3,5C000400,-0724,0829,12219,020.3,045.2,0.269,753.0,01.17,0.508
2015-10-29 03:48:00,1776E-3,5C000400,-0724,0828,12121,020.4,045.3,0.269,753.0,01.17,0.508
2015-10-29 03:49:00,1999E-3,5C000400,-0724,0829,12215,020.3,045.3,0.269,753.0,01.17,0.508
2015-10-29 03:50:00,1853E-3,5C000400,-0724,0828,12163,020.4,045.2,0.269,753.0,01.17,0.508
2015-10-29 03:51:00,1782E-3,5C000400,-0724,0828,12357,020.4,045.2,0.269,753.1,01.17,0.508
2015-10-29 03:52:00,1789E-3,5C000400,-0724,0828,12088,020.4,045.2,0.269,753.1,01.17,0.508
2015-10-29 03:53:00,1818E-3,5C000400,-0724,0828,12270,020.4,045.2,0.268,753.1,01.17,0.508
2015-10-29 03:54:00,1848E-3,5C000400,-0724,0828,12307,020.4,045.2,0.269,753.1,01.17,0.508
2015-10-29 03:55:00,1743E-3,5C000400,-0724,0829,12143,020.4,045.2,0.269,753.1,01.17,0.508
2015-10-29 03:56:00,1718E-3,5C000400,-0724,0829,12289,020.4,045.2,0.269,753.2,01.17,0.508
2015-10-29 03:57:00,1885E-3,5C000400,-0724,0828,12181,020.4,045.2,0.270,753.2,01.17,0.508
2015-10-29 03:58:00,1713E-3,5C000400,-0724,0829,12279,020.4,045.2,0.269,753.1,01.17,0.508
2015-10-29 03:59:00,1908E-3,5C000400,-0724,0828,12283,020.4,045.2,0.269,753.2,01.17,0.508
2015-10-29 04:00:00,1859E-3,5C000400,-0724,0829,12205,020.4,045.2,0.269,753.3,01.17,0.508
2015-10-29 04:01:00,1839E-3,5C000400,-0724,0828,12331,020.4,045.2,0.269,753.4,01.17,0.508
2015-10-29 04:02:00,1788E-3,5C000400,-0724,0827,12181,020.4,045.2,0.269,753.4,01.17,0.508
2015-10-29 04:03:00,1855E-3,5C000400,-0724,0828,12254,020.3,045.2,0.269,753.5,01.17,0.508
2015-10-29 04:04:00,1876E-3,5C000400,-0724,0828,12241,020.4,045.2,0.269,753.5,01.17,0.508
2015-10-29 04:05:00,1735E-3,5C000400,-0724,0827,12138,020.3,045.3,0.269,753.5,01.17,0.508
2015-10-29 04:06:00,1924E-3,5C000400,-0724,0827,12097,020.3,045.3,0.269,753.5,01.17,0.508
2015-10-29 04:07:00,1793E-3,5C000400,-0724,0828,12125,020.3,045.2,0.269,753.5,01.17,0.508
2015-10-29 04:08:00,1851E-3,5C000400,-0724,0829,12300,020.3,045.2,0.269,753.5,01.17,0.508
2015-10-29 04:09:00,1860E-3,5C000400,-0724,0828,12203,020.3,045.2,0.269,753.5,01.17,0.508
2015-10-29 04:10:00,1863E-3,5C000400,-0724,0828,12200,020.4,045.2,0.269,753.5,01.17,0.508
2015-10-29 04:11:00,1804E-3,5C000400,-0724,0828,12337,020.3,045.2,0.269,753.5,01.17,0.508
2015-10-29 04:12:00,1933E-3,5C000400,-0724,0828,12243,020.4,045.2,0.269,753.5,01.17,0.508
2015-10-29 04:13:00,1778E-3,5C000400,-0724,0828,12246,020.4,045.2,0.268,753.5,01.17,0.508
2015-10-29 04:14:00,1871E-3,5C000400,-0724,0828,12404,020.4,045.2,0.269,753.5,01.17,0.508
2015-10-29 04:15:00,1696E-3,5C000400,-0724,0828,12153,020.4,045.2,0.269,753.4,01.17,0.508
2015-10-29 04:16:00,1895E-3,5C000400,-0724,0828,12263,020.3,045.2,0.269,753.5,01.17,0.508
2015-10-29 04:17:00,1863E-3,5C000400,-0724,0829,12183,020.4,045.2,0.269,753.4,01.17,0.508
2015-10-29 04:18:00,1902E-3,5C000400,-0724,0829,12184,020.4,045.2,0.269,753.5,01.17,0.508
2015-10-29 04:19:00,1731E-3,5C000400,-0724,0829,12094,020.4,045.3,0.269,753.5,01.17,0.508
2015-10-29 04:20:00,1874E-3,5C000400,-0724,0828,12249,020.4,045.2,0.269,753.5,01.17,0.508